82610 UUMU-USSS

Flight info

Callsign 82610
Flight time N/A
Altitude 35000
Route K0870F350 KOGOM L94 EKPIR M864 INKEB L94 NAMER T765 GEMKI L94 LOMBI
Aircraft T154/M-SDGIRWY/S

Departure

Time 2026-04-28 16:59
Airport Chkalovskiy Air Base (UUMU)

Arrival

Time N/A
Airport Koltsovo Airport (USSS)
Time Latitude Longitude Altitude Speed Heading
2026-04-28 16:33 55.89177 38.04778 509 ft 0 kts 130°
2026-04-28 16:51 55.89176 38.04779 509 ft 0 kts 130°
2026-04-28 16:51 55.89170 38.04792 509 ft 3 kts 130°
2026-04-28 16:52 55.89150 38.04838 509 ft 6 kts 118°
2026-04-28 16:52 55.89164 38.04922 509 ft 10 kts 42°
2026-04-28 16:52 55.89213 38.05005 509 ft 8 kts 64°
2026-04-28 16:52 55.89188 38.05103 509 ft 10 kts 130°
2026-04-28 16:53 55.89136 38.05213 509 ft 13 kts 130°
2026-04-28 16:53 55.89069 38.05352 509 ft 16 kts 130°
2026-04-28 16:53 55.88988 38.05523 509 ft 19 kts 130°
2026-04-28 16:53 55.88891 38.05726 509 ft 23 kts 130°
2026-04-28 16:54 55.88780 38.05958 509 ft 26 kts 129°
2026-04-28 16:54 55.88668 38.06196 509 ft 22 kts 130°
2026-04-28 16:54 55.88565 38.06414 509 ft 23 kts 130°
2026-04-28 16:54 55.88500 38.06550 509 ft 19 kts 131°
2026-04-28 16:55 55.88380 38.06799 509 ft 20 kts 130°
2026-04-28 16:55 55.88298 38.06972 509 ft 17 kts 131°
2026-04-28 16:55 55.88218 38.07138 509 ft 17 kts 130°
2026-04-28 16:55 55.88139 38.07304 509 ft 17 kts 130°
2026-04-28 16:56 55.88071 38.07445 509 ft 10 kts 135°
2026-04-28 16:56 55.88002 38.07464 509 ft 10 kts 187°
2026-04-28 16:56 55.87929 38.07451 509 ft 10 kts 185°
2026-04-28 16:56 55.87848 38.07438 509 ft 12 kts 185°
2026-04-28 16:57 55.87760 38.07423 509 ft 13 kts 185°
2026-04-28 16:57 55.87652 38.07405 509 ft 17 kts 185°
2026-04-28 16:57 55.87567 38.07381 509 ft 7 kts 219°
2026-04-28 16:57 55.87569 38.07290 509 ft 8 kts 299°
2026-04-28 16:58 55.87586 38.07250 509 ft 0 kts 309°
2026-04-28 16:58 55.87587 38.07247 509 ft 0 kts 309°
2026-04-28 16:58 55.87591 38.07240 509 ft 0 kts 309°
2026-04-28 16:58 55.87592 38.07237 509 ft 0 kts 309°
2026-04-28 16:59 55.87720 38.06962 510 ft 70 kts 310°
2026-04-28 16:59 55.88222 38.05915 510 ft 147 kts 310°
2026-04-28 16:59 55.88981 38.04407 934 ft 175 kts 310°
2026-04-28 16:59 55.89848 38.02665 1461 ft 203 kts 309°
2026-04-28 17:00 55.90805 38.00657 1812 ft 209 kts 308°
2026-04-28 17:00 55.91790 37.98880 2067 ft 202 kts 327°
2026-04-28 17:00 55.93105 37.98057 2295 ft 203 kts 354°
2026-04-28 17:00 55.94058 37.98159 2556 ft 214 kts 12°
2026-04-28 17:01 55.95828 38.00021 3150 ft 233 kts 39°
2026-04-28 17:01 55.97040 38.01920 3795 ft 232 kts 40°
2026-04-28 17:01 55.98252 38.03848 4394 ft 233 kts 40°
2026-04-28 17:01 55.99182 38.06046 5309 ft 217 kts 66°
2026-04-28 17:02 55.99487 38.08665 5870 ft 223 kts 92°
2026-04-28 17:02 55.99314 38.10487 6211 ft 227 kts 111°
2026-04-28 17:02 55.98162 38.13586 6823 ft 238 kts 132°
2026-04-28 17:02 55.97039 38.15873 7151 ft 256 kts 132°
2026-04-28 17:03 55.94593 38.20783 8396 ft 265 kts 131°
2026-04-28 17:03 55.93396 38.23248 9074 ft 265 kts 130°
2026-04-28 17:03 55.92191 38.25764 9495 ft 277 kts 131°
2026-04-28 17:04 55.89621 38.30965 9553 ft 273 kts 131°
2026-04-28 17:04 55.88498 38.33618 9774 ft 259 kts 116°
2026-04-28 17:05 55.87476 38.39766 10765 ft 259 kts 100°
2026-04-28 17:05 55.87127 38.42880 11413 ft 257 kts 99°
2026-04-28 17:05 55.86784 38.46032 11917 ft 265 kts 99°
2026-04-28 17:06 55.86103 38.52623 13022 ft 276 kts 94°
2026-04-28 17:06 55.85990 38.56016 13591 ft 279 kts 89°
2026-04-28 17:06 55.85882 38.63000 14770 ft 288 kts 89°
2026-04-28 17:07 55.85793 38.66605 15297 ft 293 kts 91°
2026-04-28 17:07 55.85689 38.70280 15801 ft 300 kts 90°
2026-04-28 17:07 55.85859 38.73945 16331 ft 300 kts 70°
2026-04-28 17:07 55.86716 38.77308 16830 ft 301 kts 56°
2026-04-28 17:08 55.87804 38.80565 17347 ft 306 kts 56°
2026-04-28 17:08 55.88851 38.83904 17879 ft 311 kts 59°
2026-04-28 17:08 55.89849 38.87365 18433 ft 315 kts 60°
2026-04-28 17:08 55.90817 38.90889 18999 ft 319 kts 60°
2026-04-28 17:09 55.91778 38.94473 19580 ft 321 kts 61°
2026-04-28 17:09 55.92730 38.98061 20164 ft 323 kts 61°
2026-04-28 17:09 55.93701 39.01734 20764 ft 323 kts 60°
2026-04-28 17:09 55.94663 39.05381 21357 ft 324 kts 60°
2026-04-28 17:10 55.95629 39.09045 21851 ft 327 kts 60°
2026-04-28 17:10 55.96563 39.12761 22296 ft 333 kts 67°
2026-04-28 17:10 55.97013 39.16880 22646 ft 347 kts 82°
2026-04-28 17:10 55.97086 39.19799 22912 ft 352 kts 84°
2026-04-28 17:11 55.97219 39.25708 23459 ft 358 kts 82°
2026-04-28 17:11 55.97384 39.30124 23896 ft 363 kts 81°
2026-04-28 17:11 55.97591 39.34633 24356 ft 366 kts 81°
2026-04-28 17:11 55.97819 39.39199 24823 ft 369 kts 80°
2026-04-28 17:12 55.98055 39.43767 25256 ft 373 kts 80°
2026-04-28 17:12 55.98295 39.48401 25710 ft 376 kts 80°
2026-04-28 17:12 55.98535 39.53052 26176 ft 379 kts 80°
2026-04-28 17:12 55.98775 39.57736 26619 ft 382 kts 80°
2026-04-28 17:13 55.99017 39.62516 27079 ft 384 kts 80°
2026-04-28 17:13 55.99297 39.67252 27477 ft 385 kts 75°
2026-04-28 17:13 56.00142 39.71767 27863 ft 379 kts 58°
2026-04-28 17:13 56.01473 39.75771 28286 ft 379 kts 54°
2026-04-28 17:14 56.02813 39.79906 28691 ft 386 kts 63°
2026-04-28 17:14 56.03546 39.84582 29064 ft 397 kts 80°
2026-04-28 17:14 56.03554 39.89439 29424 ft 404 kts 90°
2026-04-28 17:14 56.03375 39.94467 29744 ft 408 kts 89°
2026-04-28 17:15 56.03274 39.99561 30202 ft 408 kts 87°
2026-04-28 17:15 56.03258 40.04599 30571 ft 410 kts 85°
2026-04-28 17:15 56.03291 40.09748 30956 ft 413 kts 85°
2026-04-28 17:15 56.03344 40.14874 31301 ft 415 kts 84°
2026-04-28 17:16 56.03406 40.20125 31666 ft 418 kts 84°
2026-04-28 17:16 56.03468 40.25328 32050 ft 420 kts 84°
2026-04-28 17:16 56.03530 40.30592 32364 ft 424 kts 84°
2026-04-28 17:16 56.03589 40.35832 32786 ft 424 kts 84°
2026-04-28 17:17 56.03645 40.41150 33064 ft 429 kts 84°
2026-04-28 17:17 56.03698 40.46514 33400 ft 431 kts 84°
2026-04-28 17:17 56.03751 40.51868 33727 ft 432 kts 84°
2026-04-28 17:17 56.03801 40.57304 34064 ft 435 kts 84°
2026-04-28 17:18 56.03850 40.62651 34373 ft 437 kts 84°
2026-04-28 17:18 56.03896 40.68107 34572 ft 442 kts 85°
2026-04-28 17:18 56.03986 40.79327 34598 ft 460 kts 85°
2026-04-28 17:19 56.04062 40.90921 34599 ft 474 kts 85°
2026-04-28 17:19 56.04125 41.02623 34592 ft 468 kts 85°
2026-04-28 17:20 56.04171 41.12314 34595 ft 468 kts 85°
2026-04-28 17:20 56.04226 41.25911 34594 ft 469 kts 85°
2026-04-28 17:21 56.04261 41.37612 34595 ft 470 kts 85°
2026-04-28 17:22 56.04293 41.55242 34601 ft 471 kts 85°
2026-04-28 17:22 56.04299 41.66984 34640 ft 472 kts 85°
2026-04-28 17:23 56.04284 41.84649 34682 ft 471 kts 86°
2026-04-28 17:23 56.04265 41.96367 34683 ft 472 kts 86°
2026-04-28 17:24 56.04233 42.08081 34682 ft 473 kts 86°
2026-04-28 17:24 56.04189 42.19936 34685 ft 473 kts 86°
2026-04-28 17:25 56.04103 42.37602 34683 ft 474 kts 86°
2026-04-28 17:26 56.04031 42.49379 34684 ft 475 kts 86°
2026-04-28 17:26 56.03925 42.61245 34683 ft 475 kts 86°
2026-04-28 17:27 56.03771 42.73094 34685 ft 475 kts 87°
2026-04-28 17:27 56.03691 42.78984 34955 ft 467 kts 91°
2026-04-28 17:27 56.03608 42.84733 35037 ft 465 kts 91°
2026-04-28 17:28 56.03445 42.96257 35025 ft 463 kts 91°
2026-04-28 17:28 56.03180 43.13546 35011 ft 457 kts 91°
2026-04-28 17:29 56.02991 43.24919 35022 ft 459 kts 91°
2026-04-28 17:30 56.03136 43.42103 35036 ft 463 kts 81°
2026-04-28 17:30 56.04544 43.59235 35017 ft 466 kts 82°
2026-04-28 17:31 56.05719 43.76478 35024 ft 467 kts 83°
2026-04-28 17:32 56.06850 43.93852 35021 ft 468 kts 83°
2026-04-28 17:32 56.07592 44.05471 35017 ft 469 kts 83°
2026-04-28 17:33 56.08322 44.17047 35017 ft 470 kts 83°
2026-04-28 17:33 56.08804 44.24782 35019 ft 470 kts 83°
2026-04-28 17:34 56.09754 44.40364 35019 ft 469 kts 83°
2026-04-28 17:34 56.10455 44.51795 35008 ft 469 kts 83°
2026-04-28 17:35 56.11161 44.63345 35012 ft 468 kts 83°
2026-04-28 17:35 56.11311 44.74647 35034 ft 466 kts 94°
2026-04-28 17:36 56.10938 44.86226 35020 ft 468 kts 93°
2026-04-28 17:36 56.10648 44.97870 35019 ft 470 kts 92°
2026-04-28 17:37 56.10379 45.09533 35021 ft 470 kts 92°
2026-04-28 17:37 56.10098 45.21269 35018 ft 470 kts 92°
2026-04-28 17:38 56.09820 45.32970 35011 ft 466 kts 92°
2026-04-28 17:38 56.09532 45.44598 35024 ft 467 kts 92°
2026-04-28 17:39 56.09228 45.56366 35022 ft 471 kts 92°
2026-04-28 17:40 56.08762 45.73655 35015 ft 472 kts 93°
2026-04-28 17:40 56.08433 45.85385 35017 ft 474 kts 93°
2026-04-28 17:41 56.08089 45.97197 35021 ft 476 kts 93°
2026-04-28 17:41 56.07732 46.09081 35021 ft 478 kts 93°
2026-04-28 17:42 56.07364 46.20923 35017 ft 479 kts 93°
2026-04-28 17:42 56.06986 46.32733 35010 ft 472 kts 93°
2026-04-28 17:43 56.06601 46.44428 35010 ft 467 kts 93°
2026-04-28 17:43 56.06249 46.56103 35015 ft 465 kts 89°
2026-04-28 17:44 56.06441 46.67579 34998 ft 463 kts 88°
2026-04-28 17:44 56.06615 46.79114 35018 ft 463 kts 89°
2026-04-28 17:45 56.06725 46.90557 35020 ft 463 kts 89°
2026-04-28 17:45 56.06814 47.02050 35017 ft 462 kts 89°
2026-04-28 17:46 56.06891 47.13578 35015 ft 460 kts 89°
2026-04-28 17:46 56.06956 47.24989 35014 ft 459 kts 89°
2026-04-28 17:47 56.07011 47.36417 35011 ft 459 kts 89°
2026-04-28 17:47 56.07056 47.47800 35013 ft 459 kts 89°
2026-04-28 17:48 56.07090 47.59239 35013 ft 460 kts 89°
2026-04-28 17:48 56.07114 47.70568 35006 ft 459 kts 90°
2026-04-28 17:49 56.07127 47.82043 35015 ft 460 kts 90°
2026-04-28 17:49 56.07129 47.93494 35017 ft 462 kts 90°
2026-04-28 17:50 56.07126 48.05036 35021 ft 464 kts 90°
2026-04-28 17:50 56.07111 48.16655 35016 ft 464 kts 90°
2026-04-28 17:51 56.07086 48.28220 35018 ft 464 kts 90°
2026-04-28 17:51 56.07050 48.39737 35017 ft 464 kts 90°
2026-04-28 17:52 56.07004 48.51225 35016 ft 464 kts 90°
2026-04-28 17:52 56.06931 48.65391 34808 ft 460 kts 88°
2026-04-28 17:53 56.06864 48.76810 34836 ft 465 kts 88°
2026-04-28 17:53 56.06785 48.88366 34827 ft 462 kts 88°
2026-04-28 17:54 56.06688 49.00016 34828 ft 464 kts 88°
2026-04-28 17:54 56.06603 49.09734 34828 ft 468 kts 89°
2026-04-28 17:55 56.06465 49.23357 34829 ft 469 kts 90°
2026-04-28 17:55 56.06342 49.35085 34831 ft 468 kts 89°
2026-04-28 17:56 56.06205 49.46866 34829 ft 469 kts 89°
2026-04-28 17:56 56.06051 49.58683 34830 ft 468 kts 89°
2026-04-28 17:57 56.05890 49.70198 34820 ft 468 kts 90°
2026-04-28 17:57 56.05722 49.81894 34826 ft 468 kts 90°
2026-04-28 17:58 56.05541 49.93671 34830 ft 469 kts 90°
2026-04-28 17:58 56.05380 50.03430 34828 ft 468 kts 90°
2026-04-28 17:59 56.05141 50.17138 34831 ft 468 kts 90°
2026-04-28 17:59 56.04965 50.26898 34829 ft 468 kts 90°
2026-04-28 18:00 56.04743 50.38600 34829 ft 468 kts 90°
2026-04-28 18:00 56.04459 50.52394 34832 ft 468 kts 90°
2026-04-28 18:01 56.04217 50.64077 34831 ft 469 kts 90°
2026-04-28 18:01 56.04003 50.73811 34868 ft 469 kts 91°
2026-04-28 18:02 56.03734 50.85585 34906 ft 468 kts 91°
2026-04-28 18:02 56.03738 50.94249 34919 ft 471 kts 88°
2026-04-28 18:03 56.03865 51.08102 34919 ft 475 kts 89°
2026-04-28 18:03 56.03909 51.19965 34921 ft 475 kts 89°
2026-04-28 18:04 56.03930 51.29873 34919 ft 475 kts 89°
2026-04-28 18:04 56.03946 51.43836 34921 ft 475 kts 89°
2026-04-28 18:05 56.03949 51.51727 34921 ft 474 kts 89°
2026-04-28 18:05 56.03940 51.67567 34907 ft 474 kts 90°
2026-04-28 18:06 56.03915 51.79377 34922 ft 475 kts 90°
2026-04-28 18:06 56.04089 51.91160 34926 ft 475 kts 85°
2026-04-28 18:07 56.04602 52.02971 34920 ft 474 kts 85°
2026-04-28 18:07 56.04972 52.12760 34919 ft 474 kts 85°
2026-04-28 18:08 56.05505 52.28419 34919 ft 474 kts 86°